TimeCST,TemperatureF,Dew PointF,Humidity,Sea Level PressureIn,VisibilityMPH,Wind Direction,Wind SpeedMPH,Gust SpeedMPH,PrecipitationIn,Events,Conditions,WindDirDegrees,DateUTC
12:15 AM,-0.4,-4.0,85,30.16,10.0,NNW,10.4,-,N/A,,Clear,340,2012-12-31 06:15:00
12:35 AM,-0.4,-5.8,78,30.16,10.0,NNW,11.5,-,N/A,,Clear,340,2012-12-31 06:35:00
12:55 AM,-0.4,-4.0,85,30.17,10.0,NNW,9.2,-,N/A,,Clear,330,2012-12-31 06:55:00
1:15 AM,-0.4,-5.8,78,30.17,10.0,NW,9.2,-,N/A,,Clear,320,2012-12-31 07:15:00
1:55 AM,-2.2,-7.6,78,30.19,10.0,NNW,10.4,-,N/A,,Clear,330,2012-12-31 07:55:00
2:15 AM,-2.2,-7.6,78,30.19,10.0,NNW,9.2,-,N/A,,Clear,330,2012-12-31 08:15:00
2:35 AM,-2.2,-9.4,71,30.20,10.0,NNW,9.2,-,N/A,,Clear,330,2012-12-31 08:35:00
2:55 AM,-2.2,-9.4,71,30.21,10.0,NNW,9.2,-,N/A,,Clear,330,2012-12-31 08:55:00
3:15 AM,-4.0,-9.4,78,30.22,10.0,NNW,9.2,-,N/A,,Clear,330,2012-12-31 09:15:00
3:35 AM,-2.2,-9.4,71,30.22,10.0,NNW,9.2,-,N/A,,Clear,330,2012-12-31 09:35:00
3:55 AM,-4.0,-9.4,78,30.23,10.0,NW,8.1,-,N/A,,Clear,320,2012-12-31 09:55:00
4:15 AM,-4.0,-9.4,78,30.23,10.0,NW,8.1,-,N/A,,Clear,320,2012-12-31 10:15:00
4:35 AM,-4.0,-9.4,78,30.23,10.0,NW,8.1,-,N/A,,Clear,310,2012-12-31 10:35:00
4:55 AM,-4.0,-9.4,78,30.24,10.0,WNW,8.1,-,N/A,,Clear,300,2012-12-31 10:55:00
5:15 AM,-4.0,-9.4,78,30.25,10.0,West,5.8,-,N/A,,Clear,270,2012-12-31 11:15:00
5:35 AM,-5.8,-9.4,84,30.25,10.0,WNW,6.9,-,N/A,,Clear,290,2012-12-31 11:35:00
5:55 AM,-4.0,-9.4,78,30.25,10.0,WNW,6.9,-,N/A,,Clear,300,2012-12-31 11:55:00
6:15 AM,-5.8,-11.2,77,30.26,10.0,WNW,8.1,-,N/A,,Clear,300,2012-12-31 12:15:00
6:55 AM,-5.8,-11.2,77,30.26,10.0,West,5.8,-,N/A,,Clear,270,2012-12-31 12:55:00
7:15 AM,-7.6,-13.0,77,30.27,10.0,West,5.8,-,N/A,,Clear,270,2012-12-31 13:15:00
7:35 AM,-9.4,-13.0,84,30.27,10.0,WSW,5.8,-,N/A,,Clear,250,2012-12-31 13:35:00
7:55 AM,-9.4,-13.0,84,30.27,10.0,West,5.8,-,N/A,,Clear,260,2012-12-31 13:55:00
8:15 AM,-9.4,-13.0,84,30.27,10.0,West,6.9,-,N/A,,Clear,260,2012-12-31 14:15:00
8:35 AM,-9.4,-13.0,84,30.27,10.0,West,6.9,-,N/A,,Clear,270,2012-12-31 14:35:00
8:55 AM,-7.6,-13.0,77,30.27,10.0,West,5.8,-,N/A,,Clear,270,2012-12-31 14:55:00
9:15 AM,-9.4,-13.0,84,30.28,10.0,West,4.6,-,N/A,,Clear,260,2012-12-31 15:15:00
9:35 AM,-7.6,-9999,N/A,30.28,10.0,WNW,3.5,-,N/A,,Clear,300,2012-12-31 15:35:00
9:55 AM,-5.8,-11.2,77,30.29,10.0,West,3.5,-,N/A,,Clear,260,2012-12-31 15:55:00
10:15 AM,-4.0,-11.2,71,30.29,10.0,WSW,3.5,-,N/A,,Clear,250,2012-12-31 16:15:00
10:35 AM,-5.8,-11.2,77,30.29,10.0,WNW,3.5,-,N/A,,Clear,290,2012-12-31 16:35:00
10:55 AM,-4.0,-9.4,78,30.28,10.0,NW,4.6,-,N/A,,Clear,320,2012-12-31 16:55:00
11:15 AM,-2.2,-9.4,71,30.29,10.0,NW,4.6,-,N/A,,Clear,320,2012-12-31 17:15:00
11:35 AM,-2.2,-9.4,71,30.29,10.0,NW,4.6,-,N/A,,Clear,320,2012-12-31 17:35:00
11:55 AM,-2.2,-7.6,78,30.29,10.0,Calm,Calm,-,N/A,,Clear,0,2012-12-31 17:55:00
12:15 PM,-0.4,-7.6,72,30.28,10.0,Calm,Calm,-,N/A,,Clear,0,2012-12-31 18:15:00
12:35 PM,-2.2,-7.6,78,30.28,10.0,NW,3.5,-,N/A,,Clear,310,2012-12-31 18:35:00
1:35 PM,-0.4,-7.6,72,30.27,10.0,Calm,Calm,-,N/A,,Clear,0,2012-12-31 19:35:00
1:55 PM,-0.4,-7.6,72,30.27,10.0,Calm,Calm,-,N/A,,Clear,0,2012-12-31 19:55:00
2:15 PM,-0.4,-7.6,72,30.26,10.0,West,3.5,-,N/A,,Clear,260,2012-12-31 20:15:00
2:35 PM,-0.4,-7.6,72,30.26,10.0,SW,3.5,-,N/A,,Clear,220,2012-12-31 20:35:00
2:55 PM,-0.4,-7.6,72,30.26,10.0,SSW,3.5,-,N/A,,Clear,210,2012-12-31 20:55:00
3:15 PM,-0.4,-7.6,72,30.26,10.0,Calm,Calm,-,N/A,,Clear,0,2012-12-31 21:15:00
3:35 PM,-0.4,-7.6,72,30.26,10.0,Calm,Calm,-,N/A,,Clear,0,2012-12-31 21:35:00
3:55 PM,-0.4,-7.6,72,30.26,10.0,Calm,Calm,-,N/A,,Clear,0,2012-12-31 21:55:00
4:15 PM,-0.4,-7.6,72,30.26,10.0,South,3.5,-,N/A,,Clear,190,2012-12-31 22:15:00
4:35 PM,-2.2,-7.6,78,30.26,10.0,SSW,4.6,-,N/A,,Clear,210,2012-12-31 22:35:00
4:55 PM,-2.2,-7.6,78,30.26,10.0,South,3.5,-,N/A,,Clear,180,2012-12-31 22:55:00
5:15 PM,-2.2,-7.6,78,30.26,10.0,South,4.6,-,N/A,,Clear,180,2012-12-31 23:15:00
5:35 PM,-4.0,-7.6,85,30.26,5.0,Calm,Calm,-,N/A,,Clear,0,2012-12-31 23:35:00
6:15 PM,-7.6,-11.2,84,30.26,10.0,South,6.9,-,N/A,,Clear,170,2013-01-01 00:15:00
6:35 PM,-7.6,-11.2,84,30.25,10.0,South,6.9,-,N/A,,Clear,180,2013-01-01 00:35:00
7:15 PM,-9.4,-13.0,84,30.25,10.0,South,8.1,-,N/A,,Clear,180,2013-01-01 01:15:00
7:35 PM,-9.4,-13.0,84,30.24,10.0,South,8.1,-,N/A,,Clear,190,2013-01-01 01:35:00
7:55 PM,-9.4,-13.0,84,30.24,10.0,South,6.9,-,N/A,,Clear,180,2013-01-01 01:55:00
8:15 PM,-9.4,-13.0,84,30.24,10.0,Calm,Calm,-,N/A,,Clear,0,2013-01-01 02:15:00
8:35 PM,-7.6,-13.0,77,30.25,10.0,SSE,4.6,-,N/A,,Clear,150,2013-01-01 02:35:00
9:15 PM,-9.4,-14.8,77,30.23,10.0,South,9.2,-,N/A,,Clear,190,2013-01-01 03:15:00
9:35 PM,-9.4,-14.8,77,30.23,10.0,South,6.9,-,N/A,,Clear,190,2013-01-01 03:35:00
9:55 PM,-11.2,-14.8,84,30.22,10.0,South,8.1,-,N/A,,Clear,190,2013-01-01 03:55:00
10:15 PM,-9.4,-13.0,84,30.23,10.0,SSW,5.8,-,N/A,,Clear,200,2013-01-01 04:15:00
10:35 PM,-11.2,-16.6,77,30.22,10.0,SSW,8.1,-,N/A,,Clear,200,2013-01-01 04:35:00
10:55 PM,-9.4,-14.8,77,30.22,10.0,SSW,6.9,-,N/A,,Clear,210,2013-01-01 04:55:00
11:15 PM,-11.2,-14.8,84,30.22,10.0,SW,8.1,-,N/A,,Clear,220,2013-01-01 05:15:00
11:35 PM,-9.4,-14.8,77,30.22,10.0,SSW,5.8,-,N/A,,Clear,210,2013-01-01 05:35:00